Regional Weather Roundup
Issued by NWS Spokane, WA

Home | Current Version | Previous Version | Text Only | Print | Product List | Glossary On
Versions: 1 2 3 4 5 6 7 8 9 10 11 12 13 14 15 16 17 18 19 20 21 22 23 24 25 26 27 28 29 30 31 32 33 34 35 36 37 38 39 40 41 42 43 44 45 46 47 48 49 50
000
NZUS01 KOTX 080325
RWROTX

Eastern Washington/Northern Idaho Roundup
National Weather Service, Spokane WA
700 PM PST WED DEC 07 2016

Note: "fair" indicated few or no clouds below 12,000 feet with no
significant weather and/or obstructions to visibility.

...Northeast Washington and Northern Idaho Panhandle...

CITY           SKY/WX    TMP DP  RH WIND       PRES   REMARKS
Spokane Intl   PTCLDY    22  10  60 NE9       30.41S WCI  12
Spokane Downto CLEAR     22  12  65 SE6       30.45S WCI  14
Coeur d Alene  CLEAR     17   8  67 N12       30.44S WCI   4
Deer Park      CLOUDY    22   8  55 NE7       30.44F WCI  13
Sandpoint      CLOUDY    21   5  49 NE9       30.48S WCI  11
Bonners Ferry  CLOUDY    18   3  53 E3        30.49S

...Southeast Washington and southern Idaho Panhandle...

CITY           SKY/WX    TMP DP  RH WIND       PRES   REMARKS
Walla Walla    CLEAR     16  11  80 SE5       30.42F WCI   9
Pullman/Moscow CLEAR     15  10  80 NE3       30.38F
Lewiston       CLEAR     18  13  80 S5        30.44F WCI  11
Lowell           N/A     25  20  81 S3        30.48R
Grangeville    FAIR       9   7  92 CALM      30.32F

...Columbia Basin...

CITY           SKY/WX    TMP DP  RH WIND       PRES   REMARKS
Ephrata        CLEAR     17   5  59 N10       30.46F WCI   5
Moses Lake     CLEAR     12   6  77 N9        30.48F WCI   0
Pasco          CLEAR     20  17  88 N6        30.51F WCI  12
Richland       CLEAR     22  18  85 NW7       30.51S WCI  13
Hermiston      CLEAR     19  16  88 SE6       30.45F WCI  11
Pendleton      PTCLDY    15  13  91 SE5       30.39F WCI   8

...East Slopes Cascades...

CITY           SKY/WX    TMP DP  RH WIND       PRES   REMARKS
The Dalles     PTCLDY    27  20  75 SE8       30.46R WCI  19
Yakima         CLEAR     23  11  60 CALM      30.46S
Ellensburg     CLEAR     15   9  76 NE6       30.42S WCI   6
Stampede Pass  CLEAR     10   9  95 VRB7      30.20S WCI  -1
Wenatchee      CLEAR     18   9  68 NW3       30.50S
Omak           CLEAR     17   4  56 NW10      30.54S WCI   5
Sunnyside      CLEAR     24  11  58 CALM      30.46F

...Southern British Columbia...

CITY           SKY/WX    TMP DP  RH WIND       PRES   REMARKS
Penticton      CLOUDY    19   7  58 NW10      30.59F WCI   8
Cranbrook      MOCLDY     5   1  85 SW3       30.49S
Osoyoos          N/A     19   9  63 NW3         N/A
Creston          N/A     19   3  49 NE7         N/A  WCI  10

...Western Montana...

CITY           SKY/WX    TMP DP  RH WIND       PRES   REMARKS
Kalispell      CLEAR      4  -4  69 N6        30.49R WCI  -7
Libby            N/A     12   5  73 S3        30.49S
Missoula       CLOUDY    15   5  64 N5        30.45S WCI   8

...Neighboring Cities...

CITY           SKY/WX    TMP DP  RH WIND       PRES   REMARKS
Seattle        CLEAR     32  16  51 NE15      30.32F WCI  22
Portland       MOCLDY    35  19  52 E24G32    30.24S WCI  23
Boise          CLEAR     20  13  74 SE8       30.36S WCI  10
Great Falls    CLOUDY     0  -6  76 CALM      30.52R
Calgary        MOCLDY    -8 -13  77 VRB2      30.52S



USA.gov is the U.S. government's official web portal to all federal, state and local government web resources and services.